STARLINK-1469 (45752 NORAD) Tracking and Keplerian Element Data

This shows tracking and keplerian element data for the satellite.

Feedback or suggestion? Click here.




ElementValue
Catalog45752
NameSTARLINK-1469
Epoch Orbit447
Epoch Day185.50001157
Epoch Year2020
RAAN197.6027
Inclination52.9971
Eccentricity0.0001237
Argument of Perigee110.5048
Mean Anonmoly240.8067
Mean Motion15.63204594
Decay Rate-0.00610414
L11 45752U 20038Y 20185.50001157 -.00610414 00000-0 -70489-2 0 9999
L22 45752 52.9971 197.6027 0001237 110.5048 240.8067 15.63204594 4473

Live tracking and technical data element details for STARLINK-1469 (NORAD 45752). STARLINK-1469 can be tracked NOW for your location showing map with azimuth and elevation plus other details from your city location.

Track the satellite on the map from your city or location and see movement details for azimuth, elevation, latitude, longitude, range, height, and movement on the map or in text.







IsCatalogInMostPopularTable: catalog: 45752, numindb: 5
Update: records affected: 1



GetName: 45752 STARLINK-1469

Hit Count: updated at: Sat, 04 Jul 2020 01:33:12 GMT